Hourly Weather Roundup
Issued by NWS Central Illinois

Home | Current Version | Previous Version | Text Only | Print | Product List | Glossary On
Versions: 1 2 3 4 5 6 7 8 9 10 11 12 13 14 15 16 17 18 19 20 21 22 23 24 25 26 27 28 29 30 31 32 33 34 35 36 37 38 39 40 41 42 43 44 45 46 47 48 49 50
000
NZUS43 KILX 092210
HWRILX

AREA WEATHER ROUNDUP
NATIONAL WEATHER SERVICE, LINCOLN IL
400 PM CST TUE FEB 09 2016


CITY           SKY/WX    TMP DP  RH WIND       PRES   REMARKS
BLOOMINGTON    LGT SNOW  18  10  70 NW21      29.94R WCI   2
CHAMPAIGN      LGT SNOW  19  11  70 NW16      29.94R WCI   4
DANVILLE       FLURRIES  18  10  72 NW17G23   29.89R WCI   3
DECATUR        LGT SNOW  19  10  68 NW16G24   29.97R WCI   4
EFFINGHAM      CLOUDY    20  13  75 W16       30.01R WCI   6
FLORA          CLOUDY    22  11  63 NW16G24   30.02R WCI   8
GALESBURG      CLOUDY    16   9  72 W18G24    29.99R WCI   0
JACKSONVILLE   CLOUDY    20  11  66 W17G24    30.03R WCI   6
LACON          CLOUDY    18   8  67 NW16G23   29.96R WCI   3
LAWRENCEVILLE  SNOW      20  16  84 NW13      29.99R WCI   7
LITCHFIELD     LGT SNOW  19  12  75 NW17      30.03R WCI   3
$$


CITY           SKY/WX    TMP DP  RH WIND       PRES   REMARKS
LINCOLN        CLOUDY    20  10  63 W14G22    29.98R WCI   7
MACOMB         CLOUDY    17  10  74 NW23      30.04R WCI   0
MATTOON        LGT SNOW  18  13  80 NW20      29.96R WCI   2
MT CARMEL AP   LGT SNOW  21  16  79 NW16G22   29.99R WCI   7
OLNEY-NOBLE AP CLOUDY    21  14  73 NW21      30.00R WCI   6
PARIS          LGT SNOW  19  14  81 NW15G25   29.95R WCI   5
PEORIA         LGT SNOW  17   9  70 NW14G23   29.98R WCI   3
PONTIAC        MIX PCPN  19  12  74 NW14G23   29.94R WCI   6
RANTOUL        CLOUDY    19  13  76 NW17G28   29.93R HAZE    WCI   4
ROBINSON       LGT SNOW  20  13  73 NW16G28   29.99R WCI   6
SPRINGFIELD    MIX PCPN  19   9  65 NW14G26   30.01R WCI   6
TAYLORVILLE    LGT SNOW  19  12  73 W18G24    30.01R WCI   4
$$

...REGIONAL REPORTS...


CITY           SKY/WX    TMP DP  RH WIND       PRES   REMARKS
CHICAGO O`HARE FLURRIES  17   7  64 NW15      29.87R WCI   2
KANKAKEE       FLURRIES  18   9  68 NW13G18   29.92R WCI   4
MOLINE         CLOUDY    16   5  62 NW16G29   30.00R WCI   1
MOUNT STERLING CLOUDY    18   9  67 NW17G26   30.03R WCI   3
MOUNT VERNON   CLOUDY    19   9  63 W8        30.03R WCI   9
PITTSFIELD     SUNNY     21  11  64 NW15G23   30.05R WCI   8
QUINCY         SUNNY     20   7  57 NW24      30.05R WCI   3
ROCKFORD       FLURRIES  16   7  67 NW15G24   29.94R WCI   1
$$


CITY           SKY/WX    TMP DP  RH WIND       PRES   REMARKS
BURLINGTON     PTSUNNY   18   8  65 NW12G23   30.03R WCI   5
CEDAR RAPIDS   SUNNY     14   5  67 NW24      30.03R WCI  -5
DES MOINES     MOSUNNY   18   5  57 NW20G29   30.13S WCI   2
KIRKSVILLE     PTSUNNY   24   7  48 NW18G26   30.09R WCI  10
OTTUMWA        SUNNY     18   7  62 NW21      30.09R WCI   1
ST LOUIS       FLURRIES  26  13  57 NW15G25   30.05R WCI  14
$$


CITY           SKY/WX    TMP DP  RH WIND       PRES   REMARKS
TERRE HAUTE    FLURRIES  20  12  71 NW13      29.94R WCI   7
EVANSVILLE     LGT SNOW  23  14  68 W12       30.01R WCI  12
INDIANAPOLIS   FLURRIES  21  12  68 W18G26    29.86R WCI   6
LAFAYETTE      LGT SNOW  18  12  77 NW15      29.89R WCI   4
MADISON        PTSUNNY   15   4  61 NW13      29.90R WCI   1
MILWAUKEE      FLURRIES  18   7  62 NW13G24   29.86R WCI   5
$$





USA.gov is the U.S. government's official web portal to all federal, state and local government web resources and services.